| time (UTC) | temp F | wind direction | speed MPH | gust MPH | rain 1hr in | rain 24hr in | rain mn in | humidity % | barometer mb |
| 20260508133116 | 53 | 253 | 5.0 | 10.0 | 0.00 | 0.00 | 0.00 | 55 | 1017.6 |
| 20260508132548 | 53 | 192 | 5.0 | 11.0 | 0.00 | 0.00 | 0.00 | 55 | 1017.6 |
| 20260508132048 | 53 | 235 | 4.0 | 11.0 | 0.00 | 0.00 | 0.00 | 55 | 1017.7 |
| 20260508131552 | 53 | 234 | 5.0 | 13.0 | 0.00 | 0.00 | 0.00 | 56 | 1017.6 |
| 20260508131048 | 53 | 225 | 6.0 | 13.0 | 0.00 | 0.00 | 0.00 | 57 | 1017.6 |
| 20260508130548 | 53 | 211 | 3.0 | 10.0 | 0.00 | 0.00 | 0.00 | 58 | 1017.6 |
| 20260508130055 | 53 | 254 | 4.0 | 10.0 | 0.00 | 0.00 | 0.00 | 58 | 1017.5 |
| 20260508125550 | 53 | 242 | 3.0 | 13.0 | 0.00 | 0.00 | 0.00 | 58 | 1017.4 |
| 20260508125048 | 54 | 226 | 5.0 | 13.0 | 0.00 | 0.00 | 0.00 | 58 | 1017.4 |
| 20260508124554 | 54 | 196 | 6.0 | 12.0 | 0.00 | 0.00 | 0.00 | 58 | 1017.4 |
| 20260508124048 | 53 | 246 | 5.0 | 12.0 | 0.00 | 0.00 | 0.00 | 59 | 1017.4 |
| 20260508123548 | 53 | 252 | 3.0 | 16.0 | 0.00 | 0.00 | 0.00 | 59 | 1017.5 |
| 20260508123100 | 53 | 292 | 7.0 | 16.0 | 0.00 | 0.00 | 0.00 | 58 | 1017.3 |
| 20260508122548 | 54 | 213 | 8.0 | 16.0 | 0.00 | 0.00 | 0.00 | 57 | 1017.3 |
| 20260508122049 | 53 | 251 | 4.0 | 12.0 | 0.00 | 0.00 | 0.00 | 59 | 1017.3 |
| 20260508121554 | 53 | 254 | 6.0 | 12.0 | 0.00 | 0.00 | 0.00 | 58 | 1017.3 |
| 20260508121048 | 53 | 242 | 4.0 | 11.0 | 0.00 | 0.00 | 0.00 | 59 | 1017.2 |
| 20260508120548 | 53 | 265 | 5.0 | 9.0 | 0.00 | 0.00 | 0.00 | 61 | 1017.3 |
| 20260508120059 | 52 | 244 | 4.0 | 9.0 | 0.00 | 0.00 | 0.00 | 62 | 1017.2 |
| 20260508115548 | 52 | 252 | 3.0 | 9.0 | 0.00 | 0.00 | 0.00 | 64 | 1017.2 |
| 20260508115047 | 51 | 240 | 5.0 | 10.0 | 0.00 | 0.00 | 0.00 | 64 | 1017.2 |
| 20260508114552 | 51 | 260 | 4.0 | 11.0 | 0.00 | 0.00 | 0.00 | 63 | 1017.2 |
| 20260508114049 | 51 | 247 | 6.0 | 12.0 | 0.00 | 0.00 | 0.00 | 63 | 1017.0 |
| 20260508113548 | 51 | 233 | 7.0 | 12.0 | 0.00 | 0.00 | 0.00 | 63 | 1017.0 |
| 20260508113112 | 53 | 273 | 6.0 | 11.0 | 0.00 | 0.00 | 0.00 | 62 | 1017.0 |
| 20260508112548 | 52 | 237 | 4.0 | 10.0 | 0.00 | 0.00 | 0.00 | 63 | 1016.9 |
| 20260508112048 | 52 | 278 | 3.0 | 10.0 | 0.00 | 0.00 | 0.00 | 63 | 1016.8 |
| 20260508111605 | 52 | 360 | 4.0 | 10.0 | 0.00 | 0.00 | 0.00 | 62 | 1016.9 |
| 20260508111048 | 52 | 259 | 4.0 | 10.0 | 0.00 | 0.00 | 0.00 | 62 | 1016.9 |
| 20260508110550 | 52 | 260 | 5.0 | 10.0 | 0.00 | 0.00 | 0.00 | 63 | 1016.9 |
| 20260508110059 | 51 | 234 | 5.0 | 10.0 | 0.00 | 0.00 | 0.00 | 63 | 1016.9 |
| 20260508105548 | 51 | 247 | 3.0 | 9.0 | 0.00 | 0.00 | 0.00 | 64 | 1016.8 |
| 20260508105046 | 51 | 231 | 4.0 | 9.0 | 0.00 | 0.00 | 0.00 | 64 | 1016.7 |
| 20260508104552 | 51 | 252 | 4.0 | 9.0 | 0.00 | 0.00 | 0.00 | 65 | 1016.8 |
| 20260508104048 | 51 | 305 | 3.0 | 9.0 | 0.00 | 0.00 | 0.00 | 64 | 1016.7 |
| 20260508103549 | 51 | 266 | 3.0 | 11.0 | 0.00 | 0.00 | 0.00 | 64 | 1016.7 |
| 20260508103058 | 51 | 202 | 4.0 | 11.0 | 0.00 | 0.00 | 0.00 | 65 | 1016.6 |
| 20260508102547 | 51 | 234 | 5.0 | 11.0 | 0.00 | 0.00 | 0.00 | 65 | 1016.7 |
| 20260508102048 | 51 | 258 | 7.0 | 12.0 | 0.00 | 0.00 | 0.00 | 64 | 1016.6 |
| 20260508101600 | 51 | 260 | 7.0 | 12.0 | 0.00 | 0.00 | 0.00 | 64 | 1016.6 |
| 20260508101047 | 52 | 254 | 5.0 | 12.0 | 0.00 | 0.00 | 0.00 | 65 | 1016.6 |
| 20260508100547 | 51 | 223 | 5.0 | 10.0 | 0.00 | 0.00 | 0.00 | 66 | 1016.5 |
| 20260508100053 | 51 | 240 | 5.0 | 11.0 | 0.00 | 0.00 | 0.00 | 67 | 1016.5 |
| 20260508095547 | 50 | 249 | 6.0 | 13.0 | 0.00 | 0.00 | 0.00 | 68 | 1016.5 |
| 20260508095048 | 49 | 244 | 6.0 | 13.0 | 0.00 | 0.00 | 0.00 | 69 | 1016.4 |
| 20260508094552 | 49 | 262 | 6.0 | 13.0 | 0.00 | 0.00 | 0.00 | 69 | 1016.4 |
| 20260508094048 | 49 | 246 | 5.0 | 12.0 | 0.00 | 0.00 | 0.00 | 70 | 1016.5 |
| 20260508093550 | 49 | 244 | 7.0 | 12.0 | 0.00 | 0.00 | 0.00 | 70 | 1016.5 |
| 20260508093052 | 49 | 250 | 5.0 | 13.0 | 0.00 | 0.00 | 0.00 | 70 | 1016.3 |
| 20260508092551 | 48 | 261 | 6.0 | 13.0 | 0.00 | 0.00 | 0.00 | 70 | 1016.4 |
| 20260508092049 | 49 | 236 | 7.0 | 13.0 | 0.00 | 0.00 | 0.00 | 70 | 1016.3 |
| 20260508091606 | 49 | 244 | 6.0 | 12.0 | 0.00 | 0.00 | 0.00 | 70 | 1016.4 |
| 20260508091050 | 49 | 247 | 4.0 | 10.0 | 0.00 | 0.00 | 0.00 | 72 | 1016.4 |
| 20260508090550 | 48 | 263 | 6.0 | 13.0 | 0.00 | 0.00 | 0.00 | 72 | 1016.3 |
| 20260508090109 | 48 | 250 | 5.0 | 13.0 | 0.00 | 0.00 | 0.00 | 71 | 1016.4 |
| 20260508085549 | 48 | 242 | 6.0 | 13.0 | 0.00 | 0.00 | 0.00 | 71 | 1016.3 |
| 20260508085049 | 49 | 244 | 4.0 | 16.0 | 0.00 | 0.00 | 0.00 | 71 | 1016.3 |
| 20260508084553 | 49 | 232 | 6.0 | 16.0 | 0.00 | 0.00 | 0.00 | 71 | 1016.3 |
| 20260508084050 | 49 | 213 | 6.0 | 12.0 | 0.00 | 0.00 | 0.00 | 71 | 1016.2 |
| 20260508083550 | 49 | 234 | 5.0 | 13.0 | 0.00 | 0.00 | 0.00 | 71 | 1016.1 |
| 20260508083054 | 48 | 245 | 6.0 | 13.0 | 0.00 | 0.00 | 0.00 | 72 | 1016.1 |
| 20260508082549 | 48 | 227 | 5.0 | 12.0 | 0.00 | 0.00 | 0.00 | 73 | 1016.0 |
| 20260508082049 | 48 | 275 | 5.0 | 12.0 | 0.00 | 0.00 | 0.00 | 74 | 1016.0 |
| 20260508081602 | 48 | 240 | 6.0 | 13.0 | 0.00 | 0.00 | 0.00 | 74 | 1015.9 |
| 20260508081049 | 48 | 252 | 8.0 | 13.0 | 0.00 | 0.00 | 0.00 | 74 | 1015.9 |
| 20260508080549 | 48 | 277 | 5.0 | 12.0 | 0.00 | 0.00 | 0.00 | 75 | 1015.8 |
| 20260508080050 | 48 | 240 | 4.0 | 12.0 | 0.00 | 0.00 | 0.00 | 75 | 1015.7 |
| 20260508075549 | 48 | 216 | 7.0 | 12.0 | 0.00 | 0.00 | 0.00 | 75 | 1015.6 |
| 20260508075050 | 48 | 236 | 4.0 | 11.0 | 0.00 | 0.00 | 0.00 | 75 | 1015.8 |
| 20260508074552 | 48 | 244 | 5.0 | 11.0 | 0.00 | 0.00 | 0.00 | 75 | 1015.7 |
| 20260508074049 | 48 | 244 | 4.0 | 8.0 | 0.00 | 0.00 | 0.00 | 75 | 1015.6 |
| 20260508073550 | 48 | 191 | 2.0 | 9.0 | 0.00 | 0.00 | 0.00 | 76 | 1015.5 |
| 20260508073104 | 48 | 227 | 4.0 | 12.0 | 0.00 | 0.00 | 0.00 | 76 | 1015.4 |
| 20260508072549 | 48 | 219 | 5.0 | 12.0 | 0.00 | 0.00 | 0.00 | 76 | 1015.4 |
| 20260508072049 | 47 | 242 | 4.0 | 9.0 | 0.00 | 0.00 | 0.00 | 77 | 1015.4 |
| 20260508071558 | 47 | 225 | 4.0 | 9.0 | 0.00 | 0.00 | 0.00 | 78 | 1015.3 |
| 20260508071049 | 47 | 201 | 2.0 | 6.0 | 0.00 | 0.00 | 0.00 | 80 | 1015.2 |
| 20260508070549 | 47 | 192 | 3.0 | 6.0 | 0.00 | 0.00 | 0.00 | 80 | 1015.2 |
| 20260508070053 | 47 | 214 | 2.0 | 6.0 | 0.00 | 0.00 | 0.00 | 80 | 1015.3 |
| 20260508065548 | 46 | 184 | 2.0 | 6.0 | 0.00 | 0.00 | 0.00 | 80 | 1015.1 |
| 20260508065049 | 46 | 180 | 2.0 | 6.0 | 0.00 | 0.00 | 0.00 | 80 | 1015.1 |
| 20260508064554 | 46 | 205 | 3.0 | 6.0 | 0.00 | 0.00 | 0.00 | 81 | 1015.0 |
| 20260508064048 | 46 | 165 | 1.0 | 6.0 | 0.00 | 0.00 | 0.00 | 81 | 1015.0 |
| 20260508063549 | 46 | 179 | 2.0 | 7.0 | 0.00 | 0.00 | 0.00 | 81 | 1015.1 |
| 20260508063053 | 46 | 189 | 2.0 | 7.0 | 0.00 | 0.00 | 0.00 | 81 | 1014.9 |
| 20260508062545 | 46 | 175 | 2.0 | 7.0 | 0.00 | 0.00 | 0.00 | 81 | 1014.9 |
| 20260508062048 | 45 | 208 | 3.0 | 9.0 | 0.00 | 0.00 | 0.00 | 81 | 1014.9 |
| 20260508061552 | 45 | 215 | 2.0 | 9.0 | 0.00 | 0.00 | 0.00 | 81 | 1014.8 |
| 20260508061051 | 45 | 205 | 3.0 | 9.0 | 0.00 | 0.00 | 0.00 | 81 | 1014.7 |
| 20260508060550 | 45 | 193 | 2.0 | 7.0 | 0.00 | 0.00 | 0.00 | 81 | 1014.7 |
| 20260508060052 | 45 | 211 | 2.0 | 7.0 | 0.00 | 0.00 | 0.00 | 81 | 1014.7 |
| 20260508055551 | 45 | 203 | 4.0 | 8.0 | 0.00 | 0.00 | 0.00 | 81 | 1014.6 |
| 20260508055049 | 45 | 180 | 3.0 | 8.0 | 0.00 | 0.00 | 0.00 | 81 | 1014.5 |
| 20260508054553 | 45 | 200 | 4.0 | 8.0 | 0.00 | 0.00 | 0.00 | 80 | 1014.4 |
| 20260508054050 | 45 | 194 | 3.0 | 9.0 | 0.00 | 0.00 | 0.00 | 80 | 1014.4 |
| 20260508053550 | 45 | 202 | 3.0 | 10.0 | 0.00 | 0.00 | 0.00 | 80 | 1014.3 |
| 20260508053114 | 45 | 206 | 4.0 | 10.0 | 0.00 | 0.00 | 0.00 | 80 | 1014.2 |
| 20260508052549 | 45 | 186 | 5.0 | 9.0 | 0.00 | 0.00 | 0.00 | 80 | 1014.2 |
| 20260508052047 | 45 | 200 | 4.0 | 10.0 | 0.00 | 0.00 | 0.00 | 80 | 1014.1 |
| 20260508051552 | 45 | 173 | 3.0 | 10.0 | 0.00 | 0.00 | 0.00 | 80 | 1014.2 |
| 20260508051050 | 45 | 194 | 3.0 | 10.0 | 0.00 | 0.00 | 0.00 | 80 | 1014.1 |
| 20260508050546 | 45 | 192 | 5.0 | 10.0 | 0.00 | 0.00 | 0.00 | 80 | 1014.1 |
| 20260508050051 | 45 | 181 | 3.0 | 10.0 | 0.00 | 0.00 | 0.00 | 80 | 1014.0 |
| 20260508045545 | 45 | 221 | 4.0 | 12.0 | 0.00 | 0.00 | 0.00 | 80 | 1014.0 |
| 20260508045049 | 45 | 204 | 4.0 | 12.0 | 0.00 | 0.00 | 0.00 | 80 | 1013.9 |
| 20260508044551 | 45 | 198 | 4.0 | 9.0 | 0.00 | 0.00 | 0.00 | 81 | 1014.0 |
| 20260508044050 | 44 | 199 | 2.0 | 8.0 | 0.00 | 0.00 | 0.00 | 81 | 1013.8 |
| 20260508043549 | 44 | 188 | 2.0 | 8.0 | 0.00 | 0.00 | 0.00 | 81 | 1013.8 |
| 20260508043050 | 44 | 178 | 2.0 | 8.0 | 0.00 | 0.00 | 0.00 | 81 | 1013.8 |
| 20260508042549 | 45 | 199 | 2.0 | 13.0 | 0.00 | 0.00 | 0.00 | 80 | 1013.8 |
| 20260508042050 | 44 | 182 | 4.0 | 13.0 | 0.00 | 0.00 | 0.00 | 80 | 1013.8 |
| 20260508041613 | 45 | 206 | 4.0 | 11.0 | 0.00 | 0.00 | 0.00 | 80 | 1013.6 |
| 20260508041049 | 45 | 175 | 3.0 | 10.0 | 0.00 | 0.00 | 0.00 | 80 | 1013.6 |
| 20260508040548 | 44 | 198 | 3.0 | 10.0 | 0.00 | 0.00 | 0.00 | 79 | 1013.7 |
| 20260508040107 | 45 | 124 | 2.0 | 10.0 | 0.00 | 0.00 | 0.00 | 79 | 1013.5 |
| 20260508035546 | 44 | 205 | 3.0 | 10.0 | 0.00 | 0.00 | 0.00 | 79 | 1013.7 |
| 20260508035046 | 44 | 196 | 3.0 | 7.0 | 0.00 | 0.00 | 0.00 | 79 | 1013.5 |
| 20260508034551 | 44 | 230 | 2.0 | 7.0 | 0.00 | 0.00 | 0.00 | 79 | 1013.5 |
| 20260508034052 | 44 | 221 | 2.0 | 7.0 | 0.00 | 0.00 | 0.00 | 79 | 1013.6 |
| 20260508033545 | 44 | 220 | 3.0 | 12.0 | 0.00 | 0.00 | 0.00 | 78 | 1013.6 |
| 20260508033051 | 44 | 192 | 3.0 | 12.0 | 0.00 | 0.00 | 0.00 | 78 | 1013.5 |
| 20260508032549 | 44 | 184 | 5.0 | 11.0 | 0.00 | 0.00 | 0.00 | 78 | 1013.5 |
| 20260508032050 | 44 | 235 | 5.0 | 11.0 | 0.00 | 0.00 | 0.00 | 78 | 1013.4 |
| 20260508031554 | 44 | 189 | 5.0 | 11.0 | 0.00 | 0.00 | 0.00 | 78 | 1013.5 |
| 20260508031051 | 44 | 232 | 5.0 | 11.0 | 0.00 | 0.00 | 0.00 | 77 | 1013.4 |
| 20260508030549 | 44 | 229 | 4.0 | 8.0 | 0.00 | 0.00 | 0.00 | 77 | 1013.4 |
| 20260508030050 | 44 | 222 | 3.0 | 11.0 | 0.00 | 0.00 | 0.00 | 77 | 1013.5 |
| 20260508025549 | 44 | 213 | 3.0 | 11.0 | 0.00 | 0.00 | 0.00 | 76 | 1013.6 |
| 20260508025050 | 44 | 209 | 5.0 | 11.0 | 0.00 | 0.00 | 0.00 | 76 | 1013.5 |
| 20260508024604 | 44 | 225 | 5.0 | 11.0 | 0.00 | 0.00 | 0.00 | 75 | 1013.5 |
| 20260508024048 | 44 | 223 | 4.0 | 13.0 | 0.00 | 0.00 | 0.00 | 75 | 1013.3 |
| 20260508023549 | 44 | 235 | 6.0 | 13.0 | 0.00 | 0.00 | 0.00 | 74 | 1013.4 |
| 20260508023051 | 44 | 202 | 5.0 | 14.0 | 0.00 | 0.00 | 0.00 | 74 | 1013.4 |
| 20260508022553 | 44 | 214 | 7.0 | 15.0 | 0.00 | 0.00 | 0.00 | 74 | 1013.5 |
| 20260508022049 | 45 | 223 | 7.0 | 15.0 | 0.00 | 0.00 | 0.00 | 73 | 1013.4 |
| 20260508021552 | 45 | 196 | 7.0 | 15.0 | 0.00 | 0.00 | 0.00 | 72 | 1013.4 |
| 20260508021048 | 45 | 175 | 7.0 | 15.0 | 0.00 | 0.00 | 0.00 | 72 | 1013.3 |
| 20260508020549 | 45 | 198 | 7.0 | 15.0 | 0.00 | 0.00 | 0.00 | 71 | 1013.4 |
| 20260508020055 | 45 | 221 | 6.0 | 15.0 | 0.00 | 0.00 | 0.00 | 70 | 1013.4 |
| 20260508015549 | 46 | 215 | 6.0 | 15.0 | 0.00 | 0.00 | 0.00 | 69 | 1013.4 |
| 20260508015049 | 46 | 231 | 7.0 | 15.0 | 0.00 | 0.00 | 0.00 | 68 | 1013.4 |
| 20260508014551 | 46 | 225 | 7.0 | 15.0 | 0.00 | 0.00 | 0.00 | 67 | 1013.3 |
| 20260508014051 | 46 | 202 | 7.0 | 15.0 | 0.00 | 0.00 | 0.00 | 67 | 1013.3 |
| 20260508013549 | 46 | 234 | 7.0 | 15.0 | 0.00 | 0.00 | 0.00 | 68 | 1013.3 |
| 20260508013055 | 46 | 165 | 5.0 | 14.0 | 0.00 | 0.00 | 0.00 | 69 | 1013.2 |
| 20260508012549 | 46 | 213 | 6.0 | 14.0 | 0.00 | 0.00 | 0.00 | 70 | 1013.2 |
| 20260508012046 | 46 | 179 | 6.0 | 15.0 | 0.00 | 0.00 | 0.00 | 71 | 1013.3 |
| 20260508011600 | 45 | 243 | 7.0 | 15.0 | 0.00 | 0.00 | 0.00 | 72 | 1013.3 |
| 20260508011045 | 45 | 194 | 4.0 | 13.0 | 0.00 | 0.00 | 0.00 | 73 | 1013.2 |
| 20260508010549 | 45 | 213 | 4.0 | 13.0 | 0.00 | 0.00 | 0.00 | 73 | 1013.0 |
| 20260508010056 | 45 | 195 | 5.0 | 12.0 | 0.00 | 0.00 | 0.00 | 73 | 1013.1 |
| 20260508005549 | 45 | 191 | 5.0 | 12.0 | 0.00 | 0.00 | 0.00 | 73 | 1013.0 |
| 20260508005046 | 45 | 203 | 5.0 | 14.0 | 0.00 | 0.00 | 0.00 | 73 | 1013.0 |
| 20260508004557 | 45 | 196 | 4.0 | 14.0 | 0.00 | 0.00 | 0.00 | 73 | 1013.1 |
| 20260508004046 | 45 | 176 | 4.0 | 12.0 | 0.00 | 0.00 | 0.00 | 73 | 1013.0 |
| 20260508003549 | 45 | 175 | 5.0 | 13.0 | 0.00 | 0.00 | 0.00 | 73 | 1013.1 |
| 20260508003105 | 45 | 245 | 5.0 | 13.0 | 0.00 | 0.00 | 0.00 | 73 | 1013.1 |
| 20260508002550 | 45 | 202 | 5.0 | 11.0 | 0.00 | 0.00 | 0.00 | 73 | 1013.0 |
| 20260508002049 | 45 | 200 | 6.0 | 12.0 | 0.00 | 0.00 | 0.00 | 72 | 1013.1 |
| 20260508001553 | 45 | 206 | 4.0 | 12.0 | 0.00 | 0.00 | 0.00 | 72 | 1013.1 |
| 20260508001048 | 45 | 188 | 4.0 | 10.0 | 0.00 | 0.00 | 0.00 | 72 | 1013.2 |
| 20260508000548 | 45 | 192 | 4.0 | 12.0 | 0.00 | 0.00 | 0.00 | 72 | 1013.1 |
| 20260508000052 | 45 | 183 | 3.0 | 12.0 | 0.00 | 0.00 | 0.00 | 72 | 1013.2 |
| 20260507235547 | 45 | 210 | 4.0 | 11.0 | 0.00 | 0.00 | 0.00 | 72 | 1013.4 |
| 20260507235049 | 45 | 205 | 5.0 | 12.0 | 0.00 | 0.00 | 0.00 | 72 | 1013.3 |
| 20260507234557 | 46 | 217 | 6.0 | 12.0 | 0.00 | 0.00 | 0.00 | 72 | 1013.2 |
| 20260507234048 | 46 | 186 | 6.0 | 13.0 | 0.00 | 0.00 | 0.00 | 72 | 1013.3 |
| 20260507233548 | 46 | 236 | 6.0 | 15.0 | 0.00 | 0.00 | 0.00 | 72 | 1013.0 |
| 20260507233102 | 46 | 209 | 6.0 | 15.0 | 0.00 | 0.00 | 0.00 | 72 | 1012.9 |
| 20260507232547 | 46 | 219 | 5.0 | 15.0 | 0.00 | 0.00 | 0.00 | 72 | 1013.1 |
| 20260507232047 | 46 | 193 | 7.0 | 15.0 | 0.00 | 0.00 | 0.00 | 72 | 1013.0 |
| 20260507231554 | 46 | 200 | 4.0 | 12.0 | 0.00 | 0.00 | 0.00 | 72 | 1013.0 |
| 20260507231049 | 46 | 222 | 5.0 | 13.0 | 0.00 | 0.00 | 0.00 | 72 | 1013.0 |
| 20260507230548 | 46 | 196 | 7.0 | 15.0 | 0.00 | 0.00 | 0.00 | 72 | 1012.9 |
| 20260507230054 | 46 | 192 | 6.0 | 15.0 | 0.00 | 0.00 | 0.00 | 72 | 1012.9 |
| 20260507225547 | 46 | 210 | 4.0 | 11.0 | 0.00 | 0.00 | 0.00 | 72 | 1013.1 |
| 20260507225051 | 46 | 178 | 5.0 | 15.0 | 0.00 | 0.00 | 0.00 | 72 | 1013.0 |
| 20260507224558 | 46 | 208 | 6.0 | 16.0 | 0.00 | 0.00 | 0.00 | 72 | 1012.9 |
| 20260507224048 | 46 | 192 | 7.0 | 16.0 | 0.00 | 0.00 | 0.00 | 72 | 1012.8 |
| 20260507223547 | 46 | 203 | 5.0 | 13.0 | 0.00 | 0.00 | 0.00 | 72 | 1012.8 |
| 20260507223052 | 46 | 179 | 5.0 | 12.0 | 0.00 | 0.00 | 0.00 | 72 | 1012.9 |
| 20260507222549 | 46 | 196 | 5.0 | 13.0 | 0.00 | 0.00 | 0.00 | 72 | 1012.9 |
| 20260507222048 | 46 | 221 | 5.0 | 13.0 | 0.00 | 0.00 | 0.00 | 72 | 1012.9 |
| 20260507221553 | 46 | 124 | 5.0 | 14.0 | 0.00 | 0.00 | 0.00 | 72 | 1012.8 |
| 20260507221047 | 46 | 190 | 4.0 | 14.0 | 0.00 | 0.00 | 0.00 | 72 | 1012.9 |
| 20260507220547 | 46 | 180 | 5.0 | 14.0 | 0.00 | 0.00 | 0.00 | 72 | 1012.8 |
| 20260507220056 | 46 | 195 | 5.0 | 13.0 | 0.00 | 0.00 | 0.00 | 72 | 1012.9 |
| 20260507215550 | 46 | 194 | 5.0 | 13.0 | 0.00 | 0.00 | 0.00 | 72 | 1012.8 |
| 20260507215047 | 46 | 192 | 5.0 | 14.0 | 0.00 | 0.00 | 0.00 | 72 | 1012.8 |
| 20260507214604 | 46 | 214 | 5.0 | 14.0 | 0.00 | 0.00 | 0.00 | 72 | 1012.9 |
| 20260507214048 | 46 | 211 | 5.0 | 15.0 | 0.00 | 0.00 | 0.00 | 72 | 1012.9 |
| 20260507213548 | 47 | 261 | 6.0 | 16.0 | 0.00 | 0.00 | 0.00 | 71 | 1012.9 |
| 20260507213102 | 47 | 200 | 8.0 | 19.0 | 0.00 | 0.00 | 0.00 | 71 | 1012.8 |
| 20260507212550 | 47 | 167 | 9.0 | 19.0 | 0.00 | 0.00 | 0.00 | 71 | 1012.8 |
| 20260507212048 | 47 | 224 | 8.0 | 19.0 | 0.00 | 0.00 | 0.00 | 71 | 1012.7 |
| 20260507211554 | 47 | 159 | 9.0 | 19.0 | 0.00 | 0.00 | 0.00 | 71 | 1012.6 |
| 20260507211048 | 47 | 192 | 8.0 | 17.0 | 0.00 | 0.00 | 0.00 | 71 | 1012.7 |
| 20260507210548 | 47 | 227 | 7.0 | 17.0 | 0.00 | 0.00 | 0.00 | 70 | 1012.7 |
| 20260507210051 | 47 | 205 | 6.0 | 17.0 | 0.00 | 0.00 | 0.00 | 70 | 1012.9 |
| 20260507205550 | 47 | 227 | 8.0 | 16.0 | 0.00 | 0.00 | 0.00 | 70 | 1013.0 |
| 20260507205048 | 47 | 179 | 6.0 | 15.0 | 0.00 | 0.00 | 0.00 | 70 | 1013.0 |
| 20260507204553 | 47 | 182 | 5.0 | 14.0 | 0.00 | 0.00 | 0.00 | 70 | 1013.0 |
| 20260507204048 | 47 | 173 | 5.0 | 14.0 | 0.00 | 0.00 | 0.00 | 70 | 1012.9 |
| 20260507203552 | 47 | 240 | 3.0 | 14.0 | 0.00 | 0.00 | 0.00 | 70 | 1013.0 |
| 20260507203051 | 48 | 171 | 4.0 | 12.0 | 0.00 | 0.00 | 0.00 | 69 | 1013.0 |
| 20260507202552 | 48 | 175 | 4.0 | 8.0 | 0.00 | 0.00 | 0.00 | 69 | 1013.1 |
| 20260507202050 | 48 | 202 | 3.0 | 9.0 | 0.00 | 0.00 | 0.00 | 69 | 1013.1 |
| 20260507201550 | 48 | 210 | 1.0 | 9.0 | 0.00 | 0.00 | 0.00 | 69 | 1013.0 |
| 20260507201048 | 48 | 173 | 2.0 | 7.0 | 0.00 | 0.00 | 0.00 | 69 | 1013.0 |
| 20260507200550 | 48 | 205 | 3.0 | 10.0 | 0.00 | 0.00 | 0.00 | 68 | 1013.0 |
| 20260507200057 | 48 | 198 | 4.0 | 11.0 | 0.00 | 0.00 | 0.00 | 68 | 1013.0 |
| 20260507195546 | 48 | 218 | 6.0 | 11.0 | 0.00 | 0.00 | 0.00 | 68 | 1013.0 |
| 20260507195047 | 48 | 213 | 5.0 | 9.0 | 0.00 | 0.00 | 0.00 | 68 | 1012.9 |
| 20260507194617 | 48 | 213 | 4.0 | 11.0 | 0.00 | 0.00 | 0.00 | 68 | 1012.8 |
| 20260507194050 | 49 | 211 | 3.0 | 12.0 | 0.00 | 0.00 | 0.00 | 67 | 1012.8 |
| 20260507193550 | 49 | 202 | 6.0 | 12.0 | 0.00 | 0.00 | 0.00 | 67 | 1012.8 |
| 20260507193055 | 49 | 196 | 5.0 | 12.0 | 0.00 | 0.00 | 0.00 | 67 | 1012.8 |
| 20260507192550 | 49 | 160 | 5.0 | 12.0 | 0.00 | 0.00 | 0.00 | 67 | 1012.8 |
| 20260507192049 | 49 | 183 | 4.0 | 10.0 | 0.00 | 0.00 | 0.00 | 66 | 1012.8 |
| 20260507191554 | 49 | 209 | 4.0 | 11.0 | 0.00 | 0.00 | 0.00 | 66 | 1012.9 |
| 20260507191051 | 49 | 185 | 4.0 | 11.0 | 0.00 | 0.00 | 0.00 | 66 | 1012.8 |
| 20260507190550 | 49 | 218 | 6.0 | 11.0 | 0.00 | 0.00 | 0.00 | 66 | 1012.7 |
| 20260507190100 | 49 | 185 | 6.0 | 11.0 | 0.00 | 0.00 | 0.00 | 65 | 1012.9 |
| 20260507185550 | 50 | 215 | 5.0 | 10.0 | 0.00 | 0.00 | 0.00 | 65 | 1012.8 |
| 20260507185051 | 50 | 212 | 4.0 | 11.0 | 0.00 | 0.00 | 0.00 | 64 | 1012.8 |
| 20260507184554 | 50 | 165 | 5.0 | 12.0 | 0.00 | 0.00 | 0.00 | 64 | 1012.8 |
| 20260507184050 | 50 | 195 | 6.0 | 12.0 | 0.00 | 0.00 | 0.00 | 64 | 1012.6 |
| 20260507183550 | 50 | 236 | 5.0 | 15.0 | 0.00 | 0.00 | 0.00 | 63 | 1012.5 |
| 20260507183056 | 50 | 209 | 5.0 | 16.0 | 0.00 | 0.00 | 0.00 | 63 | 1012.5 |
| 20260507182550 | 50 | 225 | 6.0 | 16.0 | 0.00 | 0.00 | 0.00 | 62 | 1012.6 |
| 20260507182052 | 50 | 188 | 7.0 | 14.0 | 0.00 | 0.00 | 0.00 | 61 | 1012.4 |
| 20260507181558 | 51 | 181 | 5.0 | 19.0 | 0.00 | 0.00 | 0.00 | 61 | 1012.3 |
| 20260507181049 | 51 | 211 | 6.0 | 19.0 | 0.00 | 0.00 | 0.00 | 61 | 1012.3 |
| 20260507180552 | 51 | 188 | 9.0 | 19.0 | 0.00 | 0.00 | 0.00 | 60 | 1012.3 |
| 20260507180055 | 51 | 195 | 8.0 | 16.0 | 0.00 | 0.00 | 0.00 | 60 | 1012.2 |
| 20260507175549 | 51 | 227 | 6.0 | 19.0 | 0.00 | 0.00 | 0.00 | 60 | 1012.2 |
| 20260507175049 | 51 | 218 | 8.0 | 19.0 | 0.00 | 0.00 | 0.00 | 60 | 1012.3 |
| 20260507174601 | 51 | 207 | 9.0 | 17.0 | 0.00 | 0.00 | 0.00 | 61 | 1012.2 |
| 20260507174048 | 51 | 213 | 6.0 | 14.0 | 0.00 | 0.00 | 0.00 | 60 | 1012.2 |
| 20260507173550 | 51 | 182 | 7.0 | 20.0 | 0.00 | 0.00 | 0.00 | 59 | 1012.2 |
| 20260507173127 | 51 | 203 | 8.0 | 22.0 | 0.00 | 0.00 | 0.00 | 58 | 1012.1 |
| 20260507172550 | 52 | 192 | 8.0 | 23.0 | 0.00 | 0.00 | 0.00 | 57 | 1012.0 |
| 20260507172049 | 53 | 215 | 10.0 | 23.0 | 0.00 | 0.00 | 0.00 | 56 | 1012.0 |
| 20260507171608 | 53 | 227 | 10.0 | 19.0 | 0.00 | 0.00 | 0.00 | 56 | 1012.1 |
| 20260507171050 | 53 | 242 | 9.0 | 16.0 | 0.00 | 0.00 | 0.00 | 57 | 1012.1 |
| 20260507170550 | 53 | 245 | 7.0 | 16.0 | 0.00 | 0.00 | 0.00 | 56 | 1012.3 |
| 20260507170110 | 53 | 210 | 6.0 | 20.0 | 0.00 | 0.00 | 0.00 | 57 | 1012.4 |
| 20260507165549 | 52 | 189 | 7.0 | 20.0 | 0.00 | 0.00 | 0.00 | 58 | 1012.4 |
| 20260507165049 | 52 | 148 | 8.0 | 17.0 | 0.00 | 0.00 | 0.00 | 58 | 1012.4 |
| 20260507164559 | 52 | 178 | 8.0 | 17.0 | 0.00 | 0.00 | 0.00 | 58 | 1012.4 |
| 20260507164050 | 52 | 190 | 7.0 | 17.0 | 0.00 | 0.00 | 0.00 | 57 | 1012.5 |
| 20260507163550 | 53 | 213 | 5.0 | 15.0 | 0.00 | 0.00 | 0.00 | 56 | 1012.6 |
| 20260507163054 | 52 | 208 | 7.0 | 15.0 | 0.00 | 0.00 | 0.00 | 56 | 1012.5 |
| 20260507162550 | 52 | 182 | 6.0 | 16.0 | 0.00 | 0.00 | 0.00 | 57 | 1012.5 |
| 20260507162049 | 52 | 203 | 8.0 | 16.0 | 0.00 | 0.00 | 0.00 | 56 | 1012.5 |
| 20260507161604 | 52 | 217 | 7.0 | 18.0 | 0.00 | 0.00 | 0.00 | 57 | 1012.5 |
| 20260507161046 | 52 | 236 | 7.0 | 18.0 | 0.00 | 0.00 | 0.00 | 56 | 1012.5 |
| 20260507160549 | 52 | 198 | 10.0 | 16.0 | 0.00 | 0.00 | 0.00 | 55 | 1012.5 |
| 20260507160051 | 52 | 200 | 7.0 | 18.0 | 0.00 | 0.00 | 0.00 | 55 | 1012.6 |
| 20260507155545 | 53 | 195 | 8.0 | 18.0 | 0.00 | 0.00 | 0.00 | 55 | 1012.6 |
| 20260507155048 | 52 | 237 | 7.0 | 23.0 | 0.00 | 0.00 | 0.00 | 54 | 1012.6 |
| 20260507154554 | 53 | 181 | 10.0 | 23.0 | 0.00 | 0.00 | 0.00 | 54 | 1012.7 |
| 20260507154050 | 52 | 189 | 8.0 | 16.0 | 0.00 | 0.00 | 0.00 | 53 | 1012.6 |
| 20260507153549 | 53 | 183 | 8.0 | 16.0 | 0.00 | 0.00 | 0.00 | 53 | 1012.6 |
| 20260507153057 | 53 | 202 | 8.0 | 15.0 | 0.00 | 0.00 | 0.00 | 54 | 1012.7 |
| 20260507152548 | 53 | 169 | 7.0 | 13.0 | 0.00 | 0.00 | 0.00 | 55 | 1012.6 |
| 20260507152049 | 53 | 192 | 7.0 | 15.0 | 0.00 | 0.00 | 0.00 | 55 | 1012.5 |
| 20260507151551 | 53 | 196 | 5.0 | 16.0 | 0.00 | 0.00 | 0.00 | 56 | 1012.6 |
| 20260507151047 | 53 | 230 | 6.0 | 17.0 | 0.00 | 0.00 | 0.00 | 56 | 1012.7 |
| 20260507150548 | 52 | 174 | 7.0 | 17.0 | 0.00 | 0.00 | 0.00 | 57 | 1012.7 |
| 20260507150100 | 52 | 185 | 6.0 | 17.0 | 0.00 | 0.00 | 0.00 | 58 | 1012.8 |
| 20260507145549 | 52 | 234 | 9.0 | 17.0 | 0.00 | 0.00 | 0.00 | 58 | 1012.8 |
| 20260507145049 | 52 | 168 | 7.0 | 15.0 | 0.00 | 0.00 | 0.00 | 59 | 1012.8 |
| 20260507144557 | 52 | 186 | 5.0 | 14.0 | 0.00 | 0.00 | 0.00 | 60 | 1012.8 |
| 20260507144049 | 51 | 176 | 7.0 | 21.0 | 0.00 | 0.00 | 0.00 | 60 | 1012.8 |
| 20260507143545 | 50 | 204 | 7.0 | 21.0 | 0.00 | 0.00 | 0.00 | 61 | 1012.8 |
| 20260507143059 | 50 | 217 | 9.0 | 17.0 | 0.00 | 0.00 | 0.00 | 61 | 1012.8 |
| 20260507142548 | 50 | 239 | 5.0 | 15.0 | 0.00 | 0.00 | 0.00 | 62 | 1013.0 |
| 20260507142049 | 50 | 180 | 8.0 | 17.0 | 0.00 | 0.00 | 0.00 | 62 | 1012.9 |
| 20260507141628 | 50 | 178 | 10.0 | 17.0 | 0.00 | 0.00 | 0.00 | 62 | 1013.1 |
| 20260507141051 | 50 | 161 | 6.0 | 17.0 | 0.00 | 0.00 | 0.00 | 62 | 1013.1 |
| 20260507140547 | 50 | 206 | 8.0 | 17.0 | 0.00 | 0.00 | 0.00 | 62 | 1013.1 |
| 20260507140051 | 50 | 205 | 7.0 | 21.0 | 0.00 | 0.00 | 0.00 | 63 | 1013.2 |
| 20260507135546 | 50 | 148 | 8.0 | 21.0 | 0.00 | 0.00 | 0.00 | 62 | 1013.3 |
| 20260507135047 | 49 | 194 | 9.0 | 19.0 | 0.00 | 0.00 | 0.00 | 63 | 1013.5 |
| 20260507134559 | 50 | 198 | 6.0 | 19.0 | 0.00 | 0.00 | 0.00 | 63 | 1013.4 |
| 20260507134045 | 49 | 189 | 9.0 | 17.0 | 0.00 | 0.00 | 0.00 | 63 | 1013.4 |
| 20260507133549 | 49 | 215 | 5.0 | 19.0 | 0.00 | 0.00 | 0.00 | 64 | 1013.2 |